Rogers City, MI

6:10 AM EDT on August 18, 2017 (GMT -0400)
Presque Isle County

Weather History for KPZQ - December, 2013

Change the Weather History Date:

Monday, December 2, 2013

  Actual Average (KAPN) Record (KAPN)
Temperature  
Mean Temperature 24 °F -  
Max Temperature 33 °F 34 °F 60 °F (1982)
Min Temperature 16 °F 20 °F -6 °F (1930)
Degree Days  
Heating Degree Days 40    
Moisture  
Dew Point 23 °F    
Average Humidity 81    
Maximum Humidity 92    
Minimum Humidity 69    
Precipitation  
Precipitation 0.00 in - - ()
Sea Level Pressure  
Sea Level Pressure 29.95 in    
Wind  
Wind Speed 2 mph (WNW)    
Max Wind Speed 9 mph    
Max Gust Speed -    
Visibility 10 miles    
Events      
Averages and records for this station are not official NWS values.
T = Trace of Precipitation, MM = Missing Value Source: NWS Daily Summary

Daily Weather History Graph

Daily Weather History Graph

Search for Another Location

Airport or City:

Trip Planner

Search our weather history database for the weather conditions in past years. The results will help you decide how hot, cold, wet, or windy it might be!

Date:

Astronomy

Dec. 02, 2013 Rise Set
Actual Time 7:56 AM EST 4:53 PM EST
Civil Twilight 7:22 AM EST 5:26 PM EST
Nautical Twilight 6:45 AM EST 6:03 PM EST
Astronomical Twilight 6:09 AM EST 6:39 PM EST
Moon 7:18 AM EST (12/2) 4:56 PM EST (12/2)
Length of Visible Light 10h 04m
Length of Day
8h 57m
Waning Crescent, 0% of the Moon is Illuminated
Dec 2
Waning Crescent
Dec 2
New
Dec 9
First Quarter
Dec 17
Full
Dec 25
Last Quarter

Hourly Weather History & Observations

Time (EST) Temp. Windchill Dew Point Humidity Pressure Visibility Wind Dir Wind Speed Gust Speed Precip Events Conditions
12:15 AM 30.9 °F - 24.4 °F 77% 30.02 in 10.0 mi Calm Calm - N/A   Overcast
12:35 AM 31.8 °F - 24.6 °F 75% 30.02 in 10.0 mi Calm Calm - N/A   Overcast
12:54 AM 29.8 °F - 24.6 °F 81% 30.01 in 10.0 mi Calm Calm - N/A   Overcast
1:15 AM 31.1 °F - 24.8 °F 77% 30.00 in 10.0 mi Calm Calm - N/A   Overcast
1:35 AM 30.2 °F - 24.6 °F 80% 29.99 in 10.0 mi Calm Calm - N/A   Overcast
1:54 AM 30.0 °F - 25.0 °F 82% 29.99 in 10.0 mi Calm Calm - N/A   Overcast
2:15 AM 30.2 °F - 25.2 °F 82% 29.99 in 10.0 mi Calm Calm - N/A   Overcast
2:34 AM 30.4 °F - 25.0 °F 80% 29.99 in 10.0 mi Calm Calm - N/A   Overcast
2:55 AM 31.1 °F 27.7 °F 25.2 °F 79% 29.99 in 10.0 mi West 3.5 mph - N/A   Overcast
3:15 AM 30.9 °F 27.5 °F 24.8 °F 78% 29.99 in 10.0 mi West 3.5 mph - N/A   Overcast
3:34 AM 31.1 °F 27.7 °F 24.8 °F 77% 29.99 in 10.0 mi West 3.5 mph - N/A   Overcast
3:55 AM 30.7 °F - 24.8 °F 79% 29.98 in 10.0 mi Calm Calm - N/A   Overcast
4:15 AM 30.7 °F - 24.6 °F 78% 29.98 in 10.0 mi Calm Calm - N/A   Overcast
4:34 AM 30.7 °F - 24.6 °F 78% 29.98 in 10.0 mi Calm Calm - N/A   Overcast
4:55 AM 30.7 °F 27.3 °F 25.0 °F 79% 29.97 in 10.0 mi West 3.5 mph - N/A   Overcast
5:15 AM 30.2 °F 26.7 °F 25.2 °F 82% 29.97 in 10.0 mi West 3.5 mph - N/A   Overcast
5:34 AM 30.2 °F - 24.8 °F 80% 29.97 in 10.0 mi Calm Calm - N/A   Overcast
5:55 AM 30.6 °F 25.8 °F 25.0 °F 80% 29.97 in 10.0 mi WSW 4.6 mph - N/A   Overcast
6:14 AM 30.2 °F 26.7 °F 25.2 °F 82% 29.97 in 10.0 mi West 3.5 mph - N/A   Overcast
6:35 AM 30.2 °F 26.7 °F 25.0 °F 81% 29.96 in 10.0 mi West 3.5 mph - N/A   Overcast
6:54 AM 30.2 °F 26.7 °F 25.3 °F 82% 29.97 in 10.0 mi West 3.5 mph - N/A   Overcast
7:15 AM 30.2 °F 26.7 °F 25.3 °F 82% 29.96 in 10.0 mi WSW 3.5 mph - N/A   Overcast
7:34 AM 30.4 °F - 25.5 °F 82% 29.96 in 10.0 mi Calm Calm - N/A   Overcast
7:55 AM 30.7 °F 27.3 °F 25.2 °F 80% 29.97 in 10.0 mi West 3.5 mph - N/A   Overcast
8:15 AM 30.4 °F 26.9 °F 25.0 °F 80% 29.97 in 10.0 mi West 3.5 mph - N/A   Overcast
8:34 AM 30.2 °F 26.7 °F 25.2 °F 82% 29.97 in 10.0 mi West 3.5 mph - N/A   Overcast
8:55 AM 30.0 °F 26.5 °F 25.0 °F 82% 29.97 in 10.0 mi West 3.5 mph - N/A   Overcast
9:14 AM 30.2 °F 26.7 °F 25.2 °F 82% 29.97 in 10.0 mi WSW 3.5 mph - N/A   Overcast
9:35 AM 30.7 °F 27.3 °F 25.3 °F 80% 29.96 in 10.0 mi West 3.5 mph - N/A   Overcast
9:55 AM 31.1 °F 27.7 °F 25.2 °F 79% 29.96 in 10.0 mi West 3.5 mph - N/A   Overcast
10:15 AM 31.8 °F 27.3 °F 25.2 °F 76% 29.96 in 10.0 mi West 4.6 mph - N/A   Overcast
10:35 AM 32.2 °F 27.7 °F 25.0 °F 75% 29.95 in 10.0 mi West 4.6 mph - N/A   Overcast
10:54 AM 32.7 °F 29.6 °F 25.0 °F 73% 29.95 in 10.0 mi West 3.5 mph - N/A   Overcast
11:15 AM 33.1 °F 28.7 °F 24.8 °F 72% 29.94 in 10.0 mi West 4.6 mph - N/A   Overcast
11:35 AM 32.9 °F 28.5 °F 24.3 °F 71% 29.94 in 10.0 mi WNW 4.6 mph - N/A   Overcast
11:54 AM 33.1 °F 28.7 °F 24.8 °F 72% 29.93 in 10.0 mi NW 4.6 mph - N/A   Overcast
12:15 PM 32.9 °F 28.5 °F 25.2 °F 73% 29.93 in 10.0 mi NNW 4.6 mph - N/A   Overcast
12:34 PM 32.4 °F 26.0 °F 25.7 °F 76% 29.93 in 10.0 mi North 6.9 mph - N/A   Overcast
12:55 PM 32.2 °F 25.8 °F 25.3 °F 76% 29.93 in 10.0 mi North 6.9 mph - N/A   Overcast
1:14 PM 32.0 °F 24.2 °F 25.7 °F 78% 29.93 in 10.0 mi North 9.2 mph - N/A   Overcast
1:35 PM 32.0 °F 26.4 °F 25.3 °F 76% 29.93 in 10.0 mi NNW 5.8 mph - N/A   Overcast
1:54 PM 32.0 °F 25.6 °F 25.3 °F 76% 29.92 in 10.0 mi NNW 6.9 mph - N/A   Overcast
2:15 PM 31.5 °F 26.8 °F 24.8 °F 76% 29.93 in 10.0 mi North 4.6 mph - N/A   Mostly Cloudy
2:35 PM 30.6 °F 24.7 °F 24.3 °F 77% 29.92 in 10.0 mi NNW 5.8 mph - N/A   Clear
2:54 PM 31.1 °F 26.4 °F 24.3 °F 76% 29.92 in 10.0 mi NNW 4.6 mph - N/A   Mostly Cloudy
3:15 PM 31.1 °F 23.7 °F 23.9 °F 75% 29.92 in 10.0 mi NNW 8.1 mph - N/A   Overcast
3:35 PM 30.7 °F 24.9 °F 23.0 °F 73% 29.92 in 10.0 mi NNW 5.8 mph - N/A   Scattered Clouds
3:54 PM 30.2 °F 26.7 °F 22.1 °F 72% 29.92 in 10.0 mi NNW 3.5 mph - N/A   Clear
4:15 PM 30.2 °F - 21.6 °F 70% 29.92 in 10.0 mi Calm Calm - N/A   Clear
4:34 PM 30.2 °F - 21.2 °F 69% 29.92 in 10.0 mi Calm Calm - N/A   Clear
4:55 PM 27.3 °F - 20.3 °F 75% 29.92 in 10.0 mi Calm Calm - N/A   Clear
5:14 PM 26.2 °F - 21.0 °F 81% 29.92 in 10.0 mi Calm Calm - N/A   Clear
5:35 PM 22.8 °F - 18.3 °F 83% 29.93 in 10.0 mi Calm Calm - N/A   Clear
5:54 PM 20.1 °F 15.2 °F 17.1 °F 88% 29.93 in 10.0 mi West 3.5 mph - N/A   Clear
6:15 PM 20.1 °F 15.2 °F 17.2 °F 89% 29.93 in 10.0 mi West 3.5 mph - N/A   Clear
6:34 PM 20.7 °F 15.8 °F 18.5 °F 91% 29.93 in 10.0 mi WSW 3.5 mph - N/A   Clear
6:55 PM 19.9 °F 14.9 °F 17.8 °F 91% 29.92 in 10.0 mi SW 3.5 mph - N/A   Clear
7:15 PM 19.9 °F 13.4 °F 17.8 °F 91% 29.93 in 10.0 mi SW 4.6 mph - N/A   Clear
7:34 PM 19.6 °F - 17.6 °F 92% 29.94 in 10.0 mi Calm Calm - N/A   Clear
7:55 PM 16.5 °F 11.0 °F 14.4 °F 91% 29.94 in 10.0 mi WSW 3.5 mph - N/A   Clear
8:14 PM 18.9 °F - 16.7 °F 91% 29.94 in 10.0 mi Calm Calm - N/A   Clear
8:35 PM 17.1 °F - 14.7 °F 91% 29.94 in 10.0 mi Calm Calm - N/A   Scattered Clouds
8:54 PM 17.1 °F 11.7 °F 15.1 °F 92% 29.94 in 10.0 mi SSW 3.5 mph - N/A   Scattered Clouds
9:15 PM 16.5 °F - 14.4 °F 91% 29.95 in 10.0 mi Calm Calm - N/A   Clear
9:35 PM 16.2 °F - 14.2 °F 92% 29.95 in 10.0 mi Calm Calm - N/A   Mostly Cloudy
9:54 PM 19.0 °F - 16.9 °F 91% 29.95 in 10.0 mi Calm Calm - N/A   Overcast
10:15 PM 20.8 °F - 18.7 °F 91% 29.96 in 10.0 mi Calm Calm - N/A   Overcast
10:35 PM 23.5 °F - 20.8 °F 89% 29.96 in 10.0 mi Calm Calm - N/A   Overcast
10:54 PM 28.9 °F 22.8 °F 24.3 °F 83% 29.96 in 10.0 mi NNE 5.8 mph - N/A   Overcast
11:15 PM 29.1 °F 25.4 °F 23.0 °F 78% 29.96 in 10.0 mi NNE 3.5 mph - N/A   Mostly Cloudy
11:34 PM 28.9 °F - 22.3 °F 76% 29.96 in 10.0 mi Calm Calm - N/A   Scattered Clouds
11:55 PM 28.4 °F 24.6 °F 22.6 °F 79% 29.96 in 10.0 mi NE 3.5 mph - N/A   Mostly Cloudy